• In Uzbekistan
  • List of Countries
  • For 7 days
  • Water Temperature
  • Satellite Maps
  • Weather Map
  • Weather Widgets
  • user-avatar
    Login

    Hourly Weather Nicosia

    Today, 27 June, Thursday

    Time Temperature Precipitation Wind Pressure Humidity
    00:00 +33°C° 0 mm 9 mps 742 mmHg 46%
    01:00 +33°C° 0 mm 9 mps 742 mmHg 41%
    02:00 +32°C° 0 mm 9 mps 742 mmHg 44%
    03:00 +32°C° 0 mm 8 mps 742 mmHg 43%
    04:00 +32°C° 0 mm 7 mps 742 mmHg 43%
    05:00 +30°C° 0 mm 6 mps 742 mmHg 43%
    06:00 +33°C° 0 mm 6 mps 742 mmHg 42%
    07:00 +34°C° 0 mm 5 mps 742 mmHg 40%
    08:00 +36°C° 0 mm 4 mps 742 mmHg 39%
    09:00 +37°C° 0 mm 5 mps 742 mmHg 38%
    10:00 +39°C° 0 mm 5 mps 742 mmHg 38%
    11:00 +40°C° 0 mm 5 mps 742 mmHg 37%
    12:00 +40°C° 0 mm 6 mps 742 mmHg 36%
    13:00 +40°C° 0 mm 7 mps 741 mmHg 36%
    14:00 +41°C° 0 mm 8 mps 741 mmHg 35%
    15:00 +40°C° 0 mm 9 mps 741 mmHg 40%
    16:00 +39°C° 0 mm 9 mps 741 mmHg 44%
    17:00 +38°C° 0 mm 10 mps 740 mmHg 48%
    18:00 +37°C° 0 mm 10 mps 740 mmHg 45%
    19:00 +37°C° 0 mm 10 mps 740 mmHg 42%
    20:00 +37°C° 0 mm 10 mps 740 mmHg 38%
    21:00 +36°C° 0 mm 10 mps 740 mmHg 38%
    22:00 +34°C° 0 mm 10 mps 740 mmHg 38%
    23:00 +34°C° 0 mm 10 mps 740 mmHg 38%

    Tomorrow, 28 June, Friday

    Time Temperature Precipitation Wind Pressure Humidity
    00:00 +33°C° 0 mm 9 mps 740 mmHg 40%
    01:00 +32°C° 0 mm 8 mps 739 mmHg 42%
    02:00 +30°C° 0 mm 7 mps 739 mmHg 45%
    03:00 +30°C° 0 mm 6 mps 739 mmHg 47%
    04:00 +30°C° 0 mm 4 mps 739 mmHg 50%
    05:00 +29°C° 0 mm 3 mps 739 mmHg 53%
    06:00 +31°C° 0 mm 3 mps 739 mmHg 49%
    07:00 +34°C° 0 mm 3 mps 739 mmHg 44%
    08:00 +36°C° 0 mm 2 mps 739 mmHg 40%
    09:00 +35°C° 0 mm 3 mps 739 mmHg 46%
    10:00 +35°C° 0 mm 4 mps 738 mmHg 52%
    11:00 +35°C° 0 mm 4 mps 738 mmHg 58%
    12:00 +35°C° 0 mm 5 mps 738 mmHg 57%
    13:00 +35°C° 0 mm 5 mps 738 mmHg 57%
    14:00 +36°C° 0 mm 6 mps 738 mmHg 57%
    15:00 +35°C° 0 mm 7 mps 738 mmHg 58%
    16:00 +35°C° 0 mm 8 mps 737 mmHg 60%
    17:00 +34°C° 0 mm 9 mps 737 mmHg 61%
    18:00 +34°C° 0 mm 9 mps 737 mmHg 56%
    19:00 +35°C° 0 mm 9 mps 738 mmHg 50%
    20:00 +35°C° 0 mm 9 mps 738 mmHg 44%
    21:00 +34°C° 0 mm 9 mps 738 mmHg 42%
    22:00 +34°C° 0 mm 9 mps 738 mmHg 41%
    23:00 +34°C° 0 mm 8 mps 738 mmHg 39%

    Day after tomorrow, 29 June, Saturday

    Time Temperature Precipitation Wind Pressure Humidity
    00:00 +33°C° 0 mm 8 mps 738 mmHg 42%
    01:00 +32°C° 0 mm 7 mps 737 mmHg 45%
    02:00 +30°C° 0 mm 6 mps 737 mmHg 47%
    03:00 +30°C° 0 mm 5 mps 737 mmHg 48%
    04:00 +30°C° 0 mm 3 mps 737 mmHg 48%
    05:00 +29°C° 0 mm 2 mps 737 mmHg 48%
    06:00 +30°C° 0 mm 2 mps 738 mmHg 43%
    07:00 +32°C° 0 mm 2 mps 738 mmHg 38%
    08:00 +34°C° 0 mm 2 mps 738 mmHg 33%
    09:00 +35°C° 0 mm 3 mps 738 mmHg 32%
    10:00 +36°C° 0 mm 3 mps 738 mmHg 30%
    11:00 +37°C° 0 mm 4 mps 738 mmHg 29%
    12:00 +37°C° 0 mm 4 mps 738 mmHg 27%
    13:00 +38°C° 0 mm 4 mps 738 mmHg 26%
    14:00 +40°C° 0 mm 5 mps 738 mmHg 24%
    15:00 +39°C° 0 mm 5 mps 738 mmHg 26%
    16:00 +39°C° 0 mm 6 mps 738 mmHg 28%
    17:00 +38°C° 0 mm 7 mps 738 mmHg 29%
    18:00 +36°C° 0 mm 6 mps 738 mmHg 33%
    19:00 +34°C° 0 mm 6 mps 738 mmHg 36%
    20:00 +33°C° 0 mm 5 mps 739 mmHg 39%
    21:00 +32°C° 0 mm 5 mps 739 mmHg 39%
    22:00 +30°C° 0 mm 4 mps 739 mmHg 38%
    23:00 +30°C° 0 mm 4 mps 739 mmHg 38%

    30 June, Sunday

    Time Temperature Precipitation Wind Pressure Humidity
    00:00 +29°C° 0 mm 3 mps 739 mmHg 39%
    01:00 +29°C° 0 mm 3 mps 739 mmHg 41%
    02:00 +28°C° 0 mm 2 mps 739 mmHg 43%
    03:00 +27°C° 0 mm 3 mps 739 mmHg 43%
    04:00 +27°C° 0 mm 3 mps 739 mmHg 44%
    05:00 +26°C° 0 mm 4 mps 739 mmHg 45%
    06:00 +27°C° 0 mm 4 mps 740 mmHg 43%
    07:00 +27°C° 0 mm 5 mps 740 mmHg 42%
    08:00 +28°C° 0 mm 5 mps 740 mmHg 41%
    09:00 +29°C° 0 mm 5 mps 741 mmHg 38%
    10:00 +30°C° 0 mm 5 mps 741 mmHg 36%
    11:00 +33°C° 0 mm 4 mps 741 mmHg 34%
    12:00 +33°C° 0 mm 4 mps 741 mmHg 31%
    13:00 +34°C° 0 mm 4 mps 741 mmHg 28%
    14:00 +35°C° 0 mm 4 mps 741 mmHg 25%
    15:00 +34°C° 0 mm 4 mps 741 mmHg 25%
    16:00 +33°C° 0 mm 5 mps 741 mmHg 24%
    17:00 +33°C° 0 mm 5 mps 740 mmHg 24%
    18:00 +30°C° 0 mm 5 mps 741 mmHg 25%
    19:00 +29°C° 0 mm 5 mps 741 mmHg 26%
    20:00 +28°C° 0 mm 5 mps 742 mmHg 27%
    21:00 +28°C° 0 mm 6 mps 742 mmHg 30%
    22:00 +27°C° 0 mm 7 mps 742 mmHg 33%
    23:00 +27°C° 0 mm 8 mps 743 mmHg 36%

    1 July, Monday

    Time Temperature Precipitation Wind Pressure Humidity
    00:00 +26°C° 0 mm 7 mps 742 mmHg 38%
    01:00 +26°C° 0 mm 7 mps 742 mmHg 40%
    02:00 +26°C° 0 mm 7 mps 742 mmHg 42%
    03:00 +24°C° 0 mm 7 mps 742 mmHg 44%
    04:00 +24°C° 0 mm 7 mps 743 mmHg 46%
    05:00 +23°C° 0 mm 7 mps 743 mmHg 47%
    06:00 +24°C° 0 mm 7 mps 743 mmHg 44%
    07:00 +26°C° 0 mm 6 mps 743 mmHg 40%
    08:00 +27°C° 0 mm 6 mps 744 mmHg 36%
    09:00 +28°C° 0 mm 5 mps 744 mmHg 32%
    10:00 +30°C° 0 mm 4 mps 744 mmHg 27%
    11:00 +32°C° 0 mm 4 mps 744 mmHg 22%
    12:00 +33°C° 0 mm 4 mps 744 mmHg 22%
    13:00 +34°C° 0 mm 5 mps 744 mmHg 21%
    14:00 +34°C° 0 mm 6 mps 743 mmHg 20%
    15:00 +34°C° 0 mm 5 mps 743 mmHg 20%
    16:00 +34°C° 0 mm 5 mps 743 mmHg 21%
    17:00 +34°C° 0 mm 5 mps 743 mmHg 21%
    18:00 +32°C° 0 mm 5 mps 743 mmHg 24%
    19:00 +30°C° 0 mm 4 mps 743 mmHg 27%
    20:00 +28°C° 0 mm 3 mps 744 mmHg 30%
    21:00 +28°C° 0 mm 4 mps 744 mmHg 31%
    22:00 +27°C° 0 mm 4 mps 744 mmHg 32%
    23:00 +27°C° 0 mm 4 mps 744 mmHg 33%

    2 July, Tuesday

    Time Temperature Precipitation Wind Pressure Humidity
    00:00 +26°C° 0 mm 4 mps 744 mmHg 35%
    01:00 +26°C° 0 mm 4 mps 744 mmHg 36%
    02:00 +25°C° 0 mm 4 mps 743 mmHg 37%
    03:00 +25°C° 0 mm 3 mps 743 mmHg 38%
    04:00 +25°C° 0 mm 3 mps 744 mmHg 40%
    05:00 +24°C° 0 mm 2 mps 744 mmHg 41%
    06:00 +26°C° 0 mm 2 mps 744 mmHg 38%
    07:00 +28°C° 0 mm 2 mps 744 mmHg 35%
    08:00 +30°C° 0 mm 2 mps 744 mmHg 32%
    09:00 +31°C° 0 mm 2 mps 744 mmHg 28%
    10:00 +34°C° 0 mm 2 mps 744 mmHg 25%
    11:00 +36°C° 0 mm 3 mps 744 mmHg 22%
    12:00 +36°C° 0 mm 3 mps 743 mmHg 24%
    13:00 +35°C° 0 mm 2 mps 743 mmHg 27%
    14:00 +35°C° 0 mm 2 mps 743 mmHg 29%
    15:00 +35°C° 0 mm 3 mps 743 mmHg 29%
    16:00 +35°C° 0 mm 4 mps 742 mmHg 29%
    17:00 +35°C° 0 mm 5 mps 742 mmHg 29%
    18:00 +33°C° 0 mm 5 mps 742 mmHg 35%
    19:00 +30°C° 0 mm 6 mps 742 mmHg 40%
    20:00 +28°C° 0 mm 6 mps 743 mmHg 46%
    21:00 +28°C° 0 mm 7 mps 742 mmHg 44%
    22:00 +28°C° 0 mm 7 mps 742 mmHg 41%
    23:00 +28°C° 0 mm 7 mps 742 mmHg 39%
    Show more